Time,TemperatureF,DewpointF,PressureIn,WindDirection,WindDirectionDegrees,WindSpeedMPH,WindSpeedGustMPH,Humidity,HourlyPrecipIn,Conditions,Clouds,dailyrainin,SolarRadiationWatts/m^2,SoftwareType,DateUTC
2013-04-16 00:04:00,31.1,28.8,30.18,South,180,3.0,5.0,91,0.00,,---,0.00,0.00,VWS V14.01,2013-04-16 07:04:00,
2013-04-16 00:09:00,31.1,28.8,30.18,SSE,160,4.0,5.0,91,0.00,,---,0.00,0.00,VWS V14.01,2013-04-16 07:09:00,
2013-04-16 00:14:00,31.1,28.8,30.18,South,191,2.0,5.0,91,0.00,,---,0.00,0.00,VWS V14.01,2013-04-16 07:14:00,
2013-04-16 00:19:00,31.2,28.9,30.18,SSE,166,0.0,5.0,91,0.00,,---,0.00,0.00,VWS V14.01,2013-04-16 07:19:00,
2013-04-16 00:24:00,31.2,28.9,30.18,SSW,194,1.0,5.0,91,0.00,,---,0.00,0.00,VWS V14.01,2013-04-16 07:24:00,
2013-04-16 00:29:00,31.2,28.9,30.18,South,183,1.0,5.0,91,0.00,,---,0.00,0.00,VWS V14.01,2013-04-16 07:29:00,
2013-04-16 00:34:00,31.2,28.6,30.18,SW,227,2.0,4.0,90,0.00,,---,0.00,0.00,VWS V14.01,2013-04-16 07:34:00,
2013-04-16 00:39:00,31.4,28.8,30.18,SSW,211,1.0,5.0,90,0.00,,---,0.00,0.00,VWS V14.01,2013-04-16 07:39:00,
2013-04-16 00:44:00,31.4,28.8,30.18,SSE,153,3.0,5.0,90,0.00,,---,0.00,0.00,VWS V14.01,2013-04-16 07:44:00,
2013-04-16 00:49:00,31.4,28.5,30.18,South,187,1.0,5.0,89,0.00,,---,0.00,0.00,VWS V14.01,2013-04-16 07:49:00,
2013-04-16 00:54:00,31.5,28.6,30.19,SSW,192,1.0,5.0,89,0.00,,---,0.00,0.00,VWS V14.01,2013-04-16 07:54:00,
2013-04-16 00:59:00,31.5,28.6,30.19,SW,222,4.0,5.0,89,0.00,,---,0.00,0.00,VWS V14.01,2013-04-16 07:59:00,
2013-04-16 01:04:00,31.5,28.6,30.19,SSE,154,3.0,4.0,89,0.00,,---,0.00,0.00,VWS V14.01,2013-04-16 08:04:00,
2013-04-16 01:09:00,31.5,28.6,30.19,SSW,193,2.0,4.0,89,0.00,,---,0.00,0.00,VWS V14.01,2013-04-16 08:09:00,
2013-04-16 01:14:00,31.5,28.6,30.19,SE,146,2.0,4.0,89,0.00,,---,0.00,0.00,VWS V14.01,2013-04-16 08:14:00,
2013-04-16 01:19:00,31.6,28.5,30.19,SSE,165,2.0,4.0,88,0.00,,---,0.00,0.00,VWS V14.01,2013-04-16 08:19:00,
2013-04-16 01:24:00,31.7,28.6,30.19,SSE,153,1.0,5.0,88,0.00,,---,0.00,0.00,VWS V14.01,2013-04-16 08:24:00,
2013-04-16 01:29:00,31.7,28.3,30.19,SE,146,2.0,6.0,87,0.00,,---,0.00,0.00,VWS V14.01,2013-04-16 08:29:00,
2013-04-16 01:34:00,31.8,28.4,30.19,South,176,3.0,3.0,87,0.00,,---,0.00,0.00,VWS V14.01,2013-04-16 08:34:00,
2013-04-16 01:39:00,31.9,28.2,30.19,South,175,1.0,4.0,86,0.00,,---,0.00,0.00,VWS V14.01,2013-04-16 08:39:00,
2013-04-16 01:44:00,31.9,28.2,30.19,SSE,155,1.0,5.0,86,0.00,,---,0.00,0.00,VWS V14.01,2013-04-16 08:44:00,
2013-04-16 01:49:00,31.9,28.2,30.19,SSE,163,1.0,5.0,86,0.00,,---,0.00,0.00,VWS V14.01,2013-04-16 08:49:00,
2013-04-16 01:54:00,31.9,28.2,30.19,SSE,153,1.0,5.0,86,0.00,,---,0.00,0.00,VWS V14.01,2013-04-16 08:54:00,
2013-04-16 01:59:00,31.9,28.2,30.19,SSE,150,4.0,5.0,86,0.00,,---,0.00,0.00,VWS V14.01,2013-04-16 08:59:00,
2013-04-16 02:04:00,31.9,27.9,30.19,South,172,2.0,5.0,85,0.00,,---,0.00,0.00,VWS V14.01,2013-04-16 09:04:00,
2013-04-16 02:09:00,31.9,27.9,30.19,SSE,148,3.0,5.0,85,0.00,,---,0.00,0.00,VWS V14.01,2013-04-16 09:09:00,
2013-04-16 02:14:00,31.9,27.9,30.19,South,186,1.0,5.0,85,0.00,,---,0.00,0.00,VWS V14.01,2013-04-16 09:14:00,
2013-04-16 03:41:00,30.2,26.5,30.20,SSW,198,0.0,0.0,86,0.00,,---,0.00,0.00,VWS V14.01,2013-04-16 10:41:00,
2013-04-16 03:46:00,29.9,26.0,30.20,South,190,3.0,3.0,85,0.00,,---,0.00,0.00,VWS V14.01,2013-04-16 10:46:00,
2013-04-16 03:51:00,30.1,25.9,30.20,SSW,202,2.0,3.0,84,0.00,,---,0.00,0.00,VWS V14.01,2013-04-16 10:51:00,
2013-04-16 03:56:00,30.2,25.7,30.20,SSW,200,3.0,3.0,83,0.00,,---,0.00,0.00,VWS V14.01,2013-04-16 10:56:00,
2013-04-16 04:01:00,30.3,25.5,30.20,SSW,207,0.0,1.0,82,0.00,,---,0.00,0.00,VWS V14.01,2013-04-16 11:01:00,
2013-04-16 04:06:00,30.2,25.7,30.20,SSW,208,0.0,1.0,83,0.00,,---,0.00,0.00,VWS V14.01,2013-04-16 11:06:00,
2013-04-16 04:11:00,30.0,25.2,30.20,South,189,0.0,3.0,82,0.00,,---,0.00,0.00,VWS V14.01,2013-04-16 11:11:00,
2013-04-16 04:16:00,30.1,25.3,30.21,SSW,201,2.0,4.0,82,0.00,,---,0.00,0.00,VWS V14.01,2013-04-16 11:16:00,
2013-04-16 04:21:00,30.4,25.3,30.21,SSW,192,1.0,4.0,81,0.00,,---,0.00,0.00,VWS V14.01,2013-04-16 11:21:00,
2013-04-16 04:26:00,30.6,25.2,30.21,South,182,1.0,4.0,80,0.00,,---,0.00,0.00,VWS V14.01,2013-04-16 11:26:00,
2013-04-16 04:31:00,30.7,25.0,30.21,SW,225,2.0,2.0,79,0.00,,---,0.00,0.00,VWS V14.01,2013-04-16 11:31:00,
2013-04-16 04:37:00,30.8,25.4,30.21,SW,227,2.0,3.0,80,0.00,,---,0.00,0.00,VWS V14.01,2013-04-16 11:37:00,
2013-04-16 04:41:00,30.7,25.0,30.21,SW,223,1.0,3.0,79,0.00,,---,0.00,0.00,VWS V14.01,2013-04-16 11:41:00,
2013-04-16 04:47:00,30.8,25.1,30.22,SSE,163,2.0,3.0,79,0.00,,---,0.00,0.00,VWS V14.01,2013-04-16 11:47:00,
2013-04-16 04:52:00,30.9,25.2,30.22,SW,232,1.0,3.0,79,0.00,,---,0.00,0.00,VWS V14.01,2013-04-16 11:52:00,
2013-04-16 04:57:00,31.1,25.0,30.22,WSW,243,1.0,4.0,78,0.00,,---,0.00,0.00,VWS V14.01,2013-04-16 11:57:00,
2013-04-16 05:03:00,31.1,25.4,30.22,SW,232,2.0,2.0,79,0.00,,---,0.00,0.00,VWS V14.01,2013-04-16 12:03:00,
2013-04-16 05:08:00,31.2,25.5,30.22,WSW,257,3.0,4.0,79,0.00,,---,0.00,0.00,VWS V14.01,2013-04-16 12:08:00,
2013-04-16 05:13:00,31.2,25.8,30.22,WSW,248,2.0,4.0,80,0.00,,---,0.00,0.00,VWS V14.01,2013-04-16 12:13:00,
2013-04-16 05:18:00,31.1,26.0,30.22,SW,232,2.0,4.0,81,0.00,,---,0.00,0.00,VWS V14.01,2013-04-16 12:18:00,
2013-04-16 05:23:00,30.8,26.0,30.22,SW,231,3.0,5.0,82,0.00,,---,0.00,0.00,VWS V14.01,2013-04-16 12:23:00,
2013-04-16 05:28:00,30.6,26.4,30.23,SSW,210,0.0,5.0,84,0.00,,---,0.00,0.00,VWS V14.01,2013-04-16 12:28:00,
2013-04-16 05:33:00,30.4,26.1,30.23,WSW,246,4.0,4.0,84,0.00,,---,0.00,0.00,VWS V14.01,2013-04-16 12:33:00,
2013-04-16 05:38:00,30.1,26.7,30.23,SSE,161,4.0,6.0,87,0.00,,---,0.00,0.00,VWS V14.01,2013-04-16 12:38:00,
2013-04-16 05:43:00,30.0,26.9,30.24,SSE,150,4.0,8.0,88,0.00,,---,0.00,0.00,VWS V14.01,2013-04-16 12:43:00,
2013-04-16 05:48:00,30.0,27.4,30.24,SSW,205,4.0,8.0,90,0.00,,---,0.00,0.00,VWS V14.01,2013-04-16 12:48:00,
2013-04-16 05:53:00,29.9,27.6,30.24,SSW,193,3.0,8.0,91,0.00,,---,0.00,0.00,VWS V14.01,2013-04-16 12:53:00,
2013-04-16 05:58:00,29.8,27.5,30.24,SSW,211,2.0,8.0,91,0.00,,---,0.00,0.00,VWS V14.01,2013-04-16 12:58:00,
2013-04-16 06:03:00,29.7,27.7,30.24,South,182,1.0,3.0,92,0.00,,---,0.00,0.00,VWS V14.01,2013-04-16 13:03:00,
2013-04-16 06:08:00,29.7,27.9,30.24,SSE,159,2.0,3.0,93,0.00,,---,0.00,0.00,VWS V14.01,2013-04-16 13:08:00,
2013-04-16 06:13:00,29.7,27.9,30.25,SSW,209,3.0,5.0,93,0.00,,---,0.00,0.00,VWS V14.01,2013-04-16 13:13:00,
2013-04-16 06:18:00,29.7,28.2,30.25,South,175,1.0,5.0,94,0.00,,---,0.00,0.00,VWS V14.01,2013-04-16 13:18:00,
2013-04-16 06:23:00,29.7,28.2,30.25,South,190,1.0,6.0,94,0.00,,---,0.00,0.00,VWS V14.01,2013-04-16 13:23:00,
2013-04-16 06:28:00,29.8,28.3,30.25,SW,221,2.0,7.0,94,0.00,,---,0.00,0.00,VWS V14.01,2013-04-16 13:28:00,
2013-04-16 06:33:00,29.8,28.5,30.25,SSW,205,3.0,6.0,95,0.00,,---,0.00,0.00,VWS V14.01,2013-04-16 13:33:00,
2013-04-16 06:38:00,29.8,28.5,30.25,SSW,204,2.0,6.0,95,0.00,,---,0.00,0.00,VWS V14.01,2013-04-16 13:38:00,
2013-04-16 06:43:00,29.8,28.5,30.25,South,176,3.0,7.0,95,0.00,,---,0.00,0.00,VWS V14.01,2013-04-16 13:43:00,
2013-04-16 06:48:00,29.8,28.5,30.26,SSW,207,2.0,7.0,95,0.00,,---,0.00,5.00,VWS V14.01,2013-04-16 13:48:00,
2013-04-16 06:53:00,29.7,28.5,30.26,SSW,196,4.0,7.0,95,0.00,,---,0.00,7.00,VWS V14.01,2013-04-16 13:53:00,
2013-04-16 06:58:00,29.7,28.5,30.26,SSW,192,1.0,7.0,95,0.00,,---,0.00,7.00,VWS V14.01,2013-04-16 13:58:00,
2013-04-16 07:03:00,29.6,28.4,30.26,SSW,205,2.0,5.0,95,0.00,,---,0.00,12.00,VWS V14.01,2013-04-16 14:03:00,
2013-04-16 07:08:00,29.7,28.5,30.26,SSW,212,2.0,5.0,95,0.00,,---,0.00,11.00,VWS V14.01,2013-04-16 14:08:00,
2013-04-16 07:13:00,29.6,28.4,30.27,SW,236,2.0,5.0,95,0.00,,---,0.00,11.00,VWS V14.01,2013-04-16 14:13:00,
2013-04-16 07:18:00,29.6,28.4,30.27,SW,219,2.0,5.0,95,0.00,,---,0.00,11.00,VWS V14.01,2013-04-16 14:18:00,
2013-04-16 07:23:00,29.6,28.4,30.27,SW,221,2.0,5.0,95,0.00,,---,0.00,14.00,VWS V14.01,2013-04-16 14:23:00,
2013-04-16 07:28:00,29.7,28.7,30.27,SSW,194,5.0,5.0,96,0.00,,---,0.00,12.00,VWS V14.01,2013-04-16 14:28:00,
2013-04-16 07:33:00,29.7,28.7,30.27,SW,219,0.0,2.0,96,0.00,,---,0.00,9.00,VWS V14.01,2013-04-16 14:33:00,
2013-04-16 07:38:00,29.8,28.8,30.27,SSW,200,2.0,6.0,96,0.00,,---,0.00,12.00,VWS V14.01,2013-04-16 14:38:00,
2013-04-16 07:43:00,29.8,28.8,30.28,SSW,197,2.0,6.0,96,0.00,,---,0.00,25.00,VWS V14.01,2013-04-16 14:43:00,
2013-04-16 07:48:00,29.9,28.9,30.28,WSW,242,3.0,6.0,96,0.00,,---,0.00,25.00,VWS V14.01,2013-04-16 14:48:00,
2013-04-16 07:53:00,30.0,29.0,30.28,SW,216,1.0,6.0,96,0.00,,---,0.00,30.00,VWS V14.01,2013-04-16 14:53:00,
2013-04-16 07:58:00,30.2,29.2,30.28,South,172,1.0,6.0,96,0.00,,---,0.00,33.00,VWS V14.01,2013-04-16 14:58:00,
2013-04-16 08:03:00,30.3,29.3,30.28,South,174,1.0,3.0,96,0.00,,---,0.00,28.00,VWS V14.01,2013-04-16 15:03:00,
2013-04-16 08:08:00,30.4,29.4,30.29,SSW,195,1.0,3.0,96,0.00,,---,0.00,28.00,VWS V14.01,2013-04-16 15:08:00,
2013-04-16 08:13:00,30.4,29.4,30.29,SSE,163,3.0,5.0,96,0.00,,---,0.00,33.00,VWS V14.01,2013-04-16 15:13:00,
2013-04-16 08:17:00,30.4,29.1,30.29,SSW,202,4.0,5.0,95,0.00,,---,0.00,30.00,VWS V14.01,2013-04-16 15:17:00,
2013-04-16 08:22:00,30.4,29.1,30.29,SSW,210,3.0,6.0,95,0.00,,---,0.00,28.00,VWS V14.01,2013-04-16 15:22:00,
2013-04-16 08:27:00,30.5,29.2,30.29,SSE,166,4.0,7.0,95,0.00,,---,0.00,30.00,VWS V14.01,2013-04-16 15:27:00,
2013-04-16 08:32:00,30.6,29.3,30.29,South,188,1.0,4.0,95,0.00,,---,0.00,32.00,VWS V14.01,2013-04-16 15:32:00,
2013-04-16 08:37:00,30.6,29.3,30.30,SSW,202,2.0,6.0,95,0.00,,---,0.00,18.00,VWS V14.01,2013-04-16 15:37:00,
2013-04-16 08:42:00,30.6,29.3,30.30,SW,229,2.0,7.0,95,0.00,,---,0.00,25.00,VWS V14.01,2013-04-16 15:42:00,
2013-04-16 08:47:00,30.6,29.3,30.30,SW,234,3.0,7.0,95,0.00,,---,0.00,47.00,VWS V14.01,2013-04-16 15:47:00,
2013-04-16 08:52:00,30.7,29.4,30.30,SSW,197,2.0,7.0,95,0.00,,---,0.00,56.00,VWS V14.01,2013-04-16 15:52:00,
2013-04-16 08:57:00,30.9,29.6,30.29,SW,236,2.0,7.0,95,0.00,,---,0.00,79.00,VWS V14.01,2013-04-16 15:57:00,
2013-04-16 09:02:00,31.2,29.9,30.29,SW,225,2.0,6.0,95,0.00,,---,0.00,134.00,VWS V14.01,2013-04-16 16:02:00,
2013-04-16 09:07:00,31.4,30.1,30.29,SSW,207,2.0,6.0,95,0.00,,---,0.00,134.00,VWS V14.01,2013-04-16 16:07:00,
2013-04-16 09:12:00,31.8,30.5,30.30,SSE,156,4.0,6.0,95,0.00,,---,0.00,151.00,VWS V14.01,2013-04-16 16:12:00,
2013-04-16 09:17:00,32.1,30.8,30.29,SSW,200,2.0,6.0,95,0.00,,---,0.00,158.00,VWS V14.01,2013-04-16 16:17:00,
2013-04-16 09:22:00,32.4,30.9,30.30,South,185,1.0,6.0,94,0.00,,---,0.00,213.00,VWS V14.01,2013-04-16 16:22:00,
2013-04-16 09:27:00,32.6,30.8,30.29,SSW,194,2.0,6.0,93,0.00,,---,0.00,229.00,VWS V14.01,2013-04-16 16:27:00,
2013-04-16 09:32:00,32.9,31.1,30.30,SW,229,3.0,4.0,93,0.00,,---,0.00,257.00,VWS V14.01,2013-04-16 16:32:00,
2013-04-16 09:37:00,33.1,30.8,30.30,SW,229,2.0,6.0,91,0.00,,---,0.00,199.00,VWS V14.01,2013-04-16 16:37:00,
2013-04-16 09:42:00,33.0,30.7,30.30,South,191,2.0,6.0,91,0.00,,---,0.00,311.00,VWS V14.01,2013-04-16 16:42:00,
2013-04-16 09:47:00,33.2,30.9,30.30,South,169,3.0,6.0,91,0.00,,---,0.00,343.00,VWS V14.01,2013-04-16 16:47:00,
2013-04-16 09:52:00,33.4,31.1,30.30,SSE,163,1.0,6.0,91,0.00,,---,0.00,123.00,VWS V14.01,2013-04-16 16:52:00,
2013-04-16 09:57:00,33.6,30.7,30.30,SSE,160,3.0,8.0,89,0.00,,---,0.00,167.00,VWS V14.01,2013-04-16 16:57:00,
2013-04-16 10:02:00,33.5,30.6,30.30,SSW,194,3.0,7.0,89,0.00,,---,0.00,292.00,VWS V14.01,2013-04-16 17:02:00,
2013-04-16 10:07:00,33.6,31.0,30.30,SSW,196,4.0,7.0,90,0.00,,---,0.00,369.00,VWS V14.01,2013-04-16 17:07:00,
2013-04-16 10:12:00,33.9,31.3,30.30,SW,219,2.0,7.0,90,0.00,,---,0.00,374.00,VWS V14.01,2013-04-16 17:12:00,
2013-04-16 10:17:00,34.3,31.4,30.30,SSE,157,3.0,7.0,89,0.00,,---,0.00,496.00,VWS V14.01,2013-04-16 17:17:00,
2013-04-16 10:22:00,34.6,31.1,30.30,SW,225,0.0,7.0,87,0.00,,---,0.00,984.00,VWS V14.01,2013-04-16 17:22:00,
2013-04-16 10:27:00,35.0,31.5,30.30,South,179,2.0,8.0,87,0.00,,---,0.00,399.00,VWS V14.01,2013-04-16 17:27:00,
2013-04-16 10:32:00,35.4,31.9,30.30,South,191,3.0,7.0,87,0.00,,---,0.00,554.00,VWS V14.01,2013-04-16 17:32:00,
2013-04-16 10:37:00,35.8,32.3,30.30,SSW,192,7.0,11.0,87,0.00,,---,0.00,900.00,VWS V14.01,2013-04-16 17:37:00,
2013-04-16 10:42:00,36.2,30.9,30.30,WSW,239,5.0,11.0,81,0.00,,---,0.00,1020.00,VWS V14.01,2013-04-16 17:42:00,
2013-04-16 10:47:00,36.0,30.1,30.30,SW,234,5.0,11.0,79,0.00,,---,0.00,264.00,VWS V14.01,2013-04-16 17:47:00,
2013-04-16 10:52:00,36.0,30.4,30.30,WSW,238,4.0,11.0,80,0.00,,---,0.00,972.00,VWS V14.01,2013-04-16 17:52:00,
2013-04-16 10:57:00,36.6,30.7,30.30,SW,234,2.0,11.0,79,0.00,,---,0.00,928.00,VWS V14.01,2013-04-16 17:57:00,
2013-04-16 11:02:00,36.9,28.7,30.30,SW,227,6.0,7.0,72,0.00,,---,0.00,928.00,VWS V14.01,2013-04-16 18:02:00,
2013-04-16 11:07:00,36.8,28.3,30.30,WSW,254,5.0,10.0,71,0.00,,---,0.00,381.00,VWS V14.01,2013-04-16 18:07:00,
2013-04-16 11:12:00,36.8,29.0,30.30,SW,217,3.0,10.0,73,0.00,,---,0.00,548.00,VWS V14.01,2013-04-16 18:12:00,
2013-04-16 11:17:00,36.9,28.4,30.30,SSW,192,3.0,10.0,71,0.00,,---,0.00,371.00,VWS V14.01,2013-04-16 18:17:00,
2013-04-16 11:22:00,36.9,28.4,30.30,SW,232,4.0,10.0,71,0.00,,---,0.00,248.00,VWS V14.01,2013-04-16 18:22:00,
2013-04-16 11:27:00,35.5,28.4,30.31,South,190,7.0,12.0,75,0.00,,---,0.00,155.00,VWS V14.01,2013-04-16 18:27:00,
2013-04-16 11:32:00,34.1,29.2,30.31,SSW,204,5.0,8.0,82,0.00,,---,0.00,202.00,VWS V14.01,2013-04-16 18:32:00,
2013-04-16 11:37:00,33.7,30.2,30.31,South,176,2.0,8.0,87,0.00,,---,0.00,292.00,VWS V14.01,2013-04-16 18:37:00,
2013-04-16 11:42:00,33.8,30.9,30.31,SSE,157,0.0,8.0,89,0.00,,---,0.00,1046.00,VWS V14.01,2013-04-16 18:42:00,
2013-04-16 11:47:00,34.4,31.5,30.31,SSE,166,2.0,8.0,89,0.00,,---,0.00,204.00,VWS V14.01,2013-04-16 18:47:00,
2013-04-16 11:52:00,35.0,31.2,30.31,SSE,158,2.0,8.0,86,0.00,,---,0.00,169.00,VWS V14.01,2013-04-16 18:52:00,
2013-04-16 11:57:00,35.3,31.2,30.31,SSE,161,4.0,8.0,85,0.00,,---,0.00,148.00,VWS V14.01,2013-04-16 18:57:00,
2013-04-16 12:02:00,35.3,30.7,30.31,South,184,5.0,9.0,83,0.00,,---,0.00,114.00,VWS V14.01,2013-04-16 19:02:00,
2013-04-16 12:07:00,35.2,30.9,30.32,SSE,148,3.0,9.0,84,0.00,,---,0.00,76.00,VWS V14.01,2013-04-16 19:07:00,
2013-04-16 12:12:00,34.8,31.0,30.32,SSE,159,4.0,9.0,86,0.00,,---,0.00,63.00,VWS V14.01,2013-04-16 19:12:00,
2013-04-16 12:17:00,34.2,31.0,30.32,SSE,159,1.0,9.0,88,0.00,,---,0.00,236.00,VWS V14.01,2013-04-16 19:17:00,
2013-04-16 12:22:00,33.7,30.8,30.31,SE,145,6.0,9.0,89,0.00,,---,0.00,318.00,VWS V14.01,2013-04-16 19:22:00,
2013-04-16 12:27:00,34.1,32.3,30.31,South,182,6.0,9.0,93,0.00,,---,0.00,988.00,VWS V14.01,2013-04-16 19:27:00,
2013-04-16 12:32:00,34.8,33.2,30.31,SSE,150,2.0,5.0,94,0.00,,---,0.00,921.00,VWS V14.01,2013-04-16 19:32:00,
2013-04-16 12:37:00,36.1,34.0,30.31,SSE,157,7.0,9.0,92,0.00,,---,0.00,1020.00,VWS V14.01,2013-04-16 19:37:00,
2013-04-16 12:42:00,36.8,33.6,30.31,SSW,207,4.0,9.0,88,0.00,,---,0.00,1020.00,VWS V14.01,2013-04-16 19:42:00,
2013-04-16 12:47:00,37.3,32.6,30.31,SSW,205,4.0,9.0,83,0.00,,---,0.00,1097.00,VWS V14.01,2013-04-16 19:47:00,
2013-04-16 12:52:00,38.1,32.5,30.30,WSW,243,8.0,9.0,80,0.00,,---,0.00,1183.00,VWS V14.01,2013-04-16 19:52:00,
2013-04-16 12:57:00,38.2,31.6,30.30,WSW,239,5.0,10.0,77,0.00,,---,0.00,271.00,VWS V14.01,2013-04-16 19:57:00,
2013-04-16 13:02:00,37.4,32.4,30.30,WSW,238,4.0,7.0,82,0.00,,---,0.00,185.00,VWS V14.01,2013-04-16 20:02:00,
2013-04-16 13:07:00,36.8,31.2,30.30,SW,231,4.0,8.0,80,0.00,,---,0.00,174.00,VWS V14.01,2013-04-16 20:07:00,
2013-04-16 13:12:00,36.6,31.3,30.30,SSW,208,2.0,8.0,81,0.00,,---,0.00,155.00,VWS V14.01,2013-04-16 20:12:00,
2013-04-16 13:17:00,36.7,30.8,30.30,WSW,251,5.0,8.0,79,0.00,,---,0.00,503.00,VWS V14.01,2013-04-16 20:17:00,
2013-04-16 13:22:00,37.3,31.4,30.30,SSE,159,2.0,8.0,79,0.00,,---,0.00,1234.00,VWS V14.01,2013-04-16 20:22:00,
2013-04-16 13:27:00,38.1,32.2,30.30,WNW,284,2.0,8.0,79,0.00,,---,0.00,102.00,VWS V14.01,2013-04-16 20:27:00,
2013-04-16 13:32:00,37.8,30.3,30.30,SW,225,2.0,11.0,74,0.00,,---,0.00,134.00,VWS V14.01,2013-04-16 20:32:00,
2013-04-16 13:37:00,37.2,30.4,30.31,SW,225,3.0,11.0,76,0.00,,---,0.00,130.00,VWS V14.01,2013-04-16 20:37:00,
2013-04-16 13:42:00,36.9,30.0,30.31,WSW,253,3.0,11.0,76,0.00,,---,0.00,243.00,VWS V14.01,2013-04-16 20:42:00,
2013-04-16 13:47:00,37.2,31.0,30.31,SSE,160,3.0,11.0,78,0.00,,---,0.00,640.00,VWS V14.01,2013-04-16 20:47:00,
2013-04-16 13:52:00,38.1,29.2,30.31,SE,134,7.0,11.0,70,0.00,,---,0.00,1056.00,VWS V14.01,2013-04-16 20:52:00,
2013-04-16 13:57:00,39.0,30.1,30.30,SSE,160,7.0,11.0,70,0.00,,---,0.00,1009.00,VWS V14.01,2013-04-16 20:57:00,
2013-04-16 14:02:00,40.1,29.7,30.30,SSE,158,6.0,12.0,66,0.00,,---,0.00,1048.00,VWS V14.01,2013-04-16 21:02:00,
2013-04-16 14:07:00,40.6,30.5,30.31,SSE,147,8.0,12.0,67,0.00,,---,0.00,225.00,VWS V14.01,2013-04-16 21:07:00,
2013-04-16 14:12:00,41.2,33.2,30.30,East,94,6.0,12.0,73,0.00,,---,0.00,1146.00,VWS V14.01,2013-04-16 21:12:00,
2013-04-16 14:17:00,42.5,34.1,30.30,ESE,109,7.0,12.0,72,0.00,,---,0.00,1090.00,VWS V14.01,2013-04-16 21:17:00,
2013-04-16 14:22:00,43.0,31.7,30.31,South,188,6.0,12.0,64,0.00,,---,0.00,290.00,VWS V14.01,2013-04-16 21:22:00,
2013-04-16 14:27:00,42.5,32.3,30.30,SSE,157,3.0,12.0,67,0.00,,---,0.00,251.00,VWS V14.01,2013-04-16 21:27:00,
2013-04-16 14:32:00,42.3,31.4,30.30,SSW,206,2.0,5.0,65,0.00,,---,0.00,176.00,VWS V14.01,2013-04-16 21:32:00,
2013-04-16 14:37:00,41.1,27.0,30.30,SW,234,3.0,9.0,57,0.00,,---,0.00,199.00,VWS V14.01,2013-04-16 21:37:00,
2013-04-16 14:42:00,40.1,27.8,30.30,SSW,208,2.0,9.0,61,0.00,,---,0.00,244.00,VWS V14.01,2013-04-16 21:42:00,
2013-04-16 14:47:00,40.2,27.4,30.30,WSW,244,5.0,9.0,60,0.00,,---,0.00,909.00,VWS V14.01,2013-04-16 21:47:00,
2013-04-16 14:52:00,40.6,27.8,30.30,ESE,116,7.0,10.0,60,0.00,,---,0.00,323.00,VWS V14.01,2013-04-16 21:52:00,
2013-04-16 14:57:00,40.5,26.0,30.30,SW,236,5.0,10.0,56,0.00,,---,0.00,197.00,VWS V14.01,2013-04-16 21:57:00,
2013-04-16 15:02:00,40.3,26.7,30.30,SW,225,5.0,8.0,58,0.00,,---,0.00,976.00,VWS V14.01,2013-04-16 22:02:00,
2013-04-16 15:07:00,41.0,27.8,30.30,SE,124,3.0,9.0,59,0.00,,---,0.00,255.00,VWS V14.01,2013-04-16 22:07:00,
2013-04-16 15:12:00,40.8,25.9,30.31,SW,232,4.0,11.0,55,0.00,,---,0.00,241.00,VWS V14.01,2013-04-16 22:12:00,
2013-04-16 15:17:00,40.4,27.6,30.31,SSW,197,1.0,11.0,60,0.00,,---,0.00,276.00,VWS V14.01,2013-04-16 22:17:00,
2013-04-16 15:22:00,40.5,26.9,30.30,SSW,192,6.0,11.0,58,0.00,,---,0.00,278.00,VWS V14.01,2013-04-16 22:22:00,
2013-04-16 15:27:00,40.5,27.3,30.31,SSW,205,7.0,11.0,59,0.00,,---,0.00,197.00,VWS V14.01,2013-04-16 22:27:00,
2013-04-16 15:32:00,40.0,26.8,30.31,WSW,246,3.0,8.0,59,0.00,,---,0.00,244.00,VWS V14.01,2013-04-16 22:32:00,
2013-04-16 15:37:00,39.7,27.0,30.31,SE,132,5.0,9.0,60,0.00,,---,0.00,232.00,VWS V14.01,2013-04-16 22:37:00,
2013-04-16 15:42:00,39.7,27.8,30.31,South,171,4.0,11.0,62,0.00,,---,0.00,223.00,VWS V14.01,2013-04-16 22:42:00,
2013-04-16 15:47:00,39.7,28.5,30.31,SSE,157,3.0,11.0,64,0.00,,---,0.00,311.00,VWS V14.01,2013-04-16 22:47:00,
2013-04-16 15:52:00,40.0,28.8,30.31,SSW,209,2.0,11.0,64,0.00,,---,0.00,710.00,VWS V14.01,2013-04-16 22:52:00,
2013-04-16 15:57:00,41.3,30.1,30.30,ESE,108,3.0,11.0,64,0.00,,---,0.00,612.00,VWS V14.01,2013-04-16 22:57:00,
2013-04-16 16:02:00,41.7,30.8,30.31,SE,124,4.0,11.0,65,0.00,,---,0.00,752.00,VWS V14.01,2013-04-16 23:02:00,
2013-04-16 16:07:00,41.9,31.4,30.30,SSE,165,4.0,11.0,66,0.00,,---,0.00,722.00,VWS V14.01,2013-04-16 23:07:00,
2013-04-16 16:12:00,42.4,32.2,30.30,SSE,153,5.0,11.0,67,0.00,,---,0.00,708.00,VWS V14.01,2013-04-16 23:12:00,
2013-04-16 16:17:00,43.4,32.0,30.30,South,183,4.0,11.0,64,0.00,,---,0.00,721.00,VWS V14.01,2013-04-16 23:17:00,
2013-04-16 16:22:00,43.7,31.5,30.30,SE,145,9.0,11.0,62,0.00,,---,0.00,151.00,VWS V14.01,2013-04-16 23:22:00,
2013-04-16 16:27:00,43.2,30.7,30.31,SSE,153,3.0,11.0,61,0.00,,---,0.00,120.00,VWS V14.01,2013-04-16 23:27:00,
2013-04-16 16:32:00,41.5,28.3,30.31,SW,232,8.0,8.0,59,0.00,,---,0.00,120.00,VWS V14.01,2013-04-16 23:32:00,
2013-04-16 16:37:00,40.4,29.2,30.31,SSE,165,4.0,9.0,64,0.00,,---,0.00,113.00,VWS V14.01,2013-04-16 23:37:00,
2013-04-16 16:42:00,39.8,29.0,30.31,SSE,162,7.0,9.0,65,0.00,,---,0.00,111.00,VWS V14.01,2013-04-16 23:42:00,
2013-04-16 16:47:00,39.4,30.1,30.32,South,188,1.0,9.0,69,0.00,,---,0.00,97.00,VWS V14.01,2013-04-16 23:47:00,
2013-04-16 16:52:00,38.8,30.9,30.32,SE,134,3.0,9.0,73,0.00,,---,0.00,104.00,VWS V14.01,2013-04-16 23:52:00,
2013-04-16 16:57:00,38.2,31.6,30.32,SSE,150,4.0,10.0,77,0.00,,---,0.00,125.00,VWS V14.01,2013-04-16 23:57:00,
2013-04-16 17:02:00,37.2,31.6,30.32,East,86,3.0,8.0,80,0.00,,---,0.00,148.00,VWS V14.01,2013-04-17 00:02:00,
2013-04-16 17:07:00,36.7,32.0,30.32,East,94,5.0,8.0,83,0.00,,---,0.00,202.00,VWS V14.01,2013-04-17 00:07:00,
2013-04-16 17:12:00,36.4,31.7,30.32,ESE,111,7.0,9.0,83,0.00,,---,0.00,162.00,VWS V14.01,2013-04-17 00:12:00,
2013-04-16 17:17:00,36.2,31.2,30.33,SE,125,3.0,9.0,82,0.00,,---,0.00,142.00,VWS V14.01,2013-04-17 00:17:00,
2013-04-16 17:22:00,36.0,31.0,30.33,SSE,147,0.0,9.0,82,0.00,,---,0.00,105.00,VWS V14.01,2013-04-17 00:22:00,
2013-04-16 17:27:00,36.0,31.4,30.33,East,98,2.0,9.0,83,0.00,,---,0.00,125.00,VWS V14.01,2013-04-17 00:27:00,
2013-04-16 17:32:00,36.1,30.8,30.32,SE,137,2.0,8.0,81,0.00,,---,0.00,183.00,VWS V14.01,2013-04-17 00:32:00,
2013-04-16 17:37:00,36.1,30.5,30.33,ESE,112,2.0,8.0,80,0.00,,---,0.00,144.00,VWS V14.01,2013-04-17 00:37:00,
2013-04-16 17:42:00,36.3,31.0,30.33,ENE,74,2.0,8.0,81,0.00,,---,0.00,162.00,VWS V14.01,2013-04-17 00:42:00,
2013-04-16 17:47:00,36.6,30.4,30.33,ESE,117,3.0,8.0,78,0.00,,---,0.00,186.00,VWS V14.01,2013-04-17 00:47:00,
2013-04-16 17:52:00,37.0,30.8,30.33,ENE,78,1.0,8.0,78,0.00,,---,0.00,195.00,VWS V14.01,2013-04-17 00:52:00,
2013-04-16 17:57:00,37.4,30.9,30.33,ESE,115,1.0,8.0,77,0.00,,---,0.00,130.00,VWS V14.01,2013-04-17 00:57:00,
2013-04-16 18:02:00,37.5,30.3,30.33,SE,140,3.0,4.0,75,0.00,,---,0.00,93.00,VWS V14.01,2013-04-17 01:02:00,
2013-04-16 18:07:00,37.6,30.7,30.34,South,177,3.0,4.0,76,0.00,,---,0.00,79.00,VWS V14.01,2013-04-17 01:07:00,
2013-04-16 18:12:00,37.6,30.7,30.34,SSW,198,7.0,10.0,76,0.00,,---,0.00,56.00,VWS V14.01,2013-04-17 01:12:00,
2013-04-16 18:17:00,37.5,30.6,30.34,SSW,202,4.0,10.0,76,0.00,,---,0.00,37.00,VWS V14.01,2013-04-17 01:17:00,
2013-04-16 18:22:00,37.2,31.0,30.34,SSE,155,4.0,10.0,78,0.00,,---,0.00,56.00,VWS V14.01,2013-04-17 01:22:00,
2013-04-16 18:27:00,36.8,31.2,30.34,South,182,5.0,10.0,80,0.00,,---,0.00,56.00,VWS V14.01,2013-04-17 01:27:00,
2013-04-16 18:32:00,36.4,31.1,30.34,SSW,192,1.0,5.0,81,0.00,,---,0.00,60.00,VWS V14.01,2013-04-17 01:32:00,
2013-04-16 18:37:00,36.2,31.2,30.34,SSE,148,3.0,7.0,82,0.00,,---,0.00,49.00,VWS V14.01,2013-04-17 01:37:00,
2013-04-16 18:42:00,35.9,31.0,30.34,SSE,152,1.0,8.0,82,0.00,,---,0.00,40.00,VWS V14.01,2013-04-17 01:42:00,
2013-04-16 18:47:00,35.9,31.2,30.34,SSE,153,2.0,8.0,83,0.00,,---,0.00,40.00,VWS V14.01,2013-04-17 01:47:00,
2013-04-16 18:52:00,35.8,31.1,30.34,South,176,1.0,8.0,83,0.00,,---,0.00,28.00,VWS V14.01,2013-04-17 01:52:00,
2013-04-16 18:57:00,35.8,31.5,30.34,SSE,155,1.0,8.0,84,0.00,,---,0.00,21.00,VWS V14.01,2013-04-17 01:57:00,
2013-04-16 19:02:00,35.8,31.5,30.34,SSE,154,2.0,4.0,84,0.00,,---,0.00,25.00,VWS V14.01,2013-04-17 02:02:00,
2013-04-16 19:07:00,35.7,31.4,30.34,SSE,163,2.0,5.0,84,0.00,,---,0.00,25.00,VWS V14.01,2013-04-17 02:07:00,
2013-04-16 19:12:00,35.5,31.1,30.34,South,170,2.0,5.0,84,0.00,,---,0.00,32.00,VWS V14.01,2013-04-17 02:12:00,
2013-04-16 19:17:00,35.4,31.6,30.34,SSE,160,2.0,5.0,86,0.00,,---,0.00,33.00,VWS V14.01,2013-04-17 02:17:00,
2013-04-16 19:22:00,35.2,31.4,30.35,SSE,159,0.0,5.0,86,0.00,,---,0.00,30.00,VWS V14.01,2013-04-17 02:22:00,
2013-04-16 19:27:00,35.1,31.3,30.35,SSE,149,1.0,5.0,86,0.00,,---,0.00,25.00,VWS V14.01,2013-04-17 02:27:00,
2013-04-16 19:32:00,35.1,31.3,30.35,SSE,159,4.0,5.0,86,0.00,,---,0.00,16.00,VWS V14.01,2013-04-17 02:32:00,
2013-04-16 19:37:00,35.0,31.2,30.35,SE,126,2.0,7.0,86,0.00,,---,0.00,11.00,VWS V14.01,2013-04-17 02:37:00,
2013-04-16 19:42:00,34.9,31.1,30.35,SE,145,2.0,7.0,86,0.00,,---,0.00,5.00,VWS V14.01,2013-04-17 02:42:00,
2013-04-16 19:47:00,34.8,31.0,30.35,SSW,192,1.0,7.0,86,0.00,,---,0.00,0.00,VWS V14.01,2013-04-17 02:47:00,
2013-04-16 19:52:00,34.7,31.0,30.35,ESE,107,2.0,7.0,86,0.00,,---,0.00,0.00,VWS V14.01,2013-04-17 02:52:00,
2013-04-16 19:57:00,34.6,30.6,30.36,SSE,150,2.0,7.0,85,0.00,,---,0.00,0.00,VWS V14.01,2013-04-17 02:57:00,
2013-04-16 20:02:00,34.6,30.6,30.36,SE,142,2.0,5.0,85,0.00,,---,0.00,0.00,VWS V14.01,2013-04-17 03:02:00,
2013-04-16 20:07:00,34.5,30.5,30.36,SSE,150,2.0,5.0,85,0.00,,---,0.00,0.00,VWS V14.01,2013-04-17 03:07:00,
2013-04-16 20:12:00,34.5,30.5,30.36,SW,215,3.0,6.0,85,0.00,,---,0.00,0.00,VWS V14.01,2013-04-17 03:12:00,
2013-04-16 20:17:00,34.4,30.1,30.36,SE,140,0.0,6.0,84,0.00,,---,0.00,0.00,VWS V14.01,2013-04-17 03:17:00,
2013-04-16 20:22:00,34.3,30.0,30.36,SSE,155,1.0,6.0,84,0.00,,---,0.00,0.00,VWS V14.01,2013-04-17 03:22:00,
2013-04-16 20:27:00,34.3,30.0,30.37,SE,136,2.0,6.0,84,0.00,,---,0.00,0.00,VWS V14.01,2013-04-17 03:27:00,
2013-04-16 20:32:00,34.2,29.9,30.37,South,179,0.0,2.0,84,0.00,,---,0.00,0.00,VWS V14.01,2013-04-17 03:32:00,
2013-04-16 20:37:00,34.2,29.9,30.37,South,188,0.0,3.0,84,0.00,,---,0.00,0.00,VWS V14.01,2013-04-17 03:37:00,
2013-04-16 20:42:00,34.1,29.5,30.37,SW,223,0.0,3.0,83,0.00,,---,0.00,0.00,VWS V14.01,2013-04-17 03:42:00,
2013-04-16 20:47:00,34.1,29.8,30.38,SW,234,0.0,3.0,84,0.00,,---,0.00,0.00,VWS V14.01,2013-04-17 03:47:00,
2013-04-16 20:52:00,34.1,29.8,30.38,SW,220,3.0,5.0,84,0.00,,---,0.00,0.00,VWS V14.01,2013-04-17 03:52:00,
2013-04-16 20:57:00,34.0,30.0,30.39,SW,222,1.0,6.0,85,0.00,,---,0.00,0.00,VWS V14.01,2013-04-17 03:57:00,
2013-04-16 21:00:00,33.9,30.2,30.39,SW,227,2.0,6.0,86,0.00,,---,0.00,0.00,VWS V14.01,2013-04-17 04:00:00,
2013-04-16 21:05:00,33.7,30.0,30.39,SSW,211,2.0,7.0,86,0.00,,---,0.00,0.00,VWS V14.01,2013-04-17 04:05:00,
2013-04-16 21:10:00,33.6,29.9,30.40,SSW,196,5.0,7.0,86,0.00,,---,0.00,0.00,VWS V14.01,2013-04-17 04:10:00,
2013-04-16 21:15:00,33.5,30.3,30.40,SSW,196,1.0,9.0,88,0.00,,---,0.00,0.00,VWS V14.01,2013-04-17 04:15:00,
2013-04-16 21:20:00,33.4,30.5,30.40,South,173,4.0,9.0,89,0.00,,---,0.00,0.00,VWS V14.01,2013-04-17 04:20:00,
2013-04-16 21:25:00,33.2,30.3,30.40,South,181,2.0,9.0,89,0.00,,---,0.00,0.00,VWS V14.01,2013-04-17 04:25:00,
2013-04-16 21:30:00,33.1,30.5,30.40,SSE,159,0.0,9.0,90,0.00,,---,0.00,0.00,VWS V14.01,2013-04-17 04:30:00,
2013-04-16 21:35:00,33.1,30.8,30.40,East,95,3.0,5.0,91,0.00,,---,0.00,0.00,VWS V14.01,2013-04-17 04:35:00,
2013-04-16 21:40:00,33.1,30.8,30.41,SSE,156,2.0,5.0,91,0.00,,---,0.00,0.00,VWS V14.01,2013-04-17 04:40:00,
2013-04-16 21:45:00,33.0,30.4,30.41,SSE,150,2.0,5.0,90,0.00,,---,0.00,0.00,VWS V14.01,2013-04-17 04:45:00,
2013-04-16 21:50:00,33.0,30.4,30.41,SSE,148,2.0,5.0,90,0.00,,---,0.00,0.00,VWS V14.01,2013-04-17 04:50:00,
2013-04-16 21:55:00,32.9,30.3,30.41,SE,144,0.0,5.0,90,0.00,,---,0.00,0.00,VWS V14.01,2013-04-17 04:55:00,
2013-04-16 22:00:00,32.9,30.3,30.41,SE,135,1.0,5.0,90,0.00,,---,0.00,0.00,VWS V14.01,2013-04-17 05:00:00,
2013-04-16 22:05:00,32.8,30.2,30.41,SE,146,0.0,4.0,90,0.00,,---,0.00,0.00,VWS V14.01,2013-04-17 05:05:00,
2013-04-16 22:10:00,32.7,30.1,30.41,SSE,161,2.0,4.0,90,0.00,,---,0.00,0.00,VWS V14.01,2013-04-17 05:10:00,
2013-04-16 22:15:00,32.6,30.0,30.41,SSE,157,2.0,4.0,90,0.00,,---,0.00,0.00,VWS V14.01,2013-04-17 05:15:00,
2013-04-16 22:20:00,32.5,29.9,30.41,ESE,103,0.0,4.0,90,0.00,,---,0.00,0.00,VWS V14.01,2013-04-17 05:20:00,
2013-04-16 22:25:00,32.5,30.2,30.42,South,171,1.0,4.0,91,0.00,,---,0.00,0.00,VWS V14.01,2013-04-17 05:25:00,
2013-04-16 22:30:00,32.4,30.1,30.42,SSE,159,0.0,4.0,91,0.00,,---,0.00,0.00,VWS V14.01,2013-04-17 05:30:00,
2013-04-16 22:35:00,32.4,29.8,30.42,South,179,5.0,5.0,90,0.00,,---,0.00,0.00,VWS V14.01,2013-04-17 05:35:00,
2013-04-16 22:40:00,32.4,29.8,30.41,SW,222,1.0,5.0,90,0.00,,---,0.00,0.00,VWS V14.01,2013-04-17 05:40:00,
2013-04-16 22:45:00,32.4,29.8,30.42,South,188,0.0,5.0,90,0.00,,---,0.00,0.00,VWS V14.01,2013-04-17 05:45:00,
2013-04-16 22:50:00,32.4,29.5,30.42,SSW,202,2.0,5.0,89,0.00,,---,0.00,0.00,VWS V14.01,2013-04-17 05:50:00,
2013-04-16 22:55:00,32.4,29.5,30.42,South,176,2.0,5.0,89,0.00,,---,0.00,0.00,VWS V14.01,2013-04-17 05:55:00,
2013-04-16 23:00:00,32.4,29.5,30.42,South,181,1.0,5.0,89,0.00,,---,0.00,0.00,VWS V14.01,2013-04-17 06:00:00,
2013-04-16 23:05:00,32.4,29.5,30.42,South,188,1.0,4.0,89,0.00,,---,0.00,0.00,VWS V14.01,2013-04-17 06:05:00,
2013-04-16 23:10:00,32.4,29.2,30.42,South,182,2.0,4.0,88,0.00,,---,0.00,0.00,VWS V14.01,2013-04-17 06:10:00,
2013-04-16 23:15:00,32.4,29.2,30.42,SSE,155,2.0,4.0,88,0.00,,---,0.00,0.00,VWS V14.01,2013-04-17 06:15:00,
2013-04-16 23:20:00,32.4,29.2,30.42,South,174,1.0,5.0,88,0.00,,---,0.00,0.00,VWS V14.01,2013-04-17 06:20:00,
2013-04-16 23:25:00,32.3,28.9,30.42,South,182,2.0,5.0,87,0.00,,---,0.00,0.00,VWS V14.01,2013-04-17 06:25:00,
2013-04-16 23:30:00,32.2,28.8,30.42,SSW,192,1.0,5.0,87,0.00,,---,0.00,0.00,VWS V14.01,2013-04-17 06:30:00,
2013-04-16 23:35:00,32.1,28.7,30.42,South,182,2.0,4.0,87,0.00,,---,0.00,0.00,VWS V14.01,2013-04-17 06:35:00,
2013-04-16 23:40:00,32.1,28.4,30.42,South,186,0.0,4.0,86,0.00,,---,0.00,0.00,VWS V14.01,2013-04-17 06:40:00,
2013-04-16 23:45:00,32.1,28.4,30.42,SSW,200,0.0,4.0,86,0.00,,---,0.00,0.00,VWS V14.01,2013-04-17 06:45:00,
2013-04-16 23:50:00,31.9,28.2,30.42,SW,221,2.0,4.0,86,0.00,,---,0.00,0.00,VWS V14.01,2013-04-17 06:50:00,
2013-04-16 23:55:00,31.7,28.0,30.42,SW,221,1.0,4.0,86,0.00,,---,0.00,0.00,VWS V14.01,2013-04-17 06:55:00,